GW3844 Weather Reports


time (UTC)temp
C
wind
direction
speed
KPH
gust
KPH
rain 1hr
cm
rain 24hr
cm
rain mn
cm
humidity
%
barometer
mb
20260507202654 24 83 0.0 0.0 0.00 0.00 0.00 99 1008.2
20260507202150 24 86 1.6 1.6 0.00 0.00 0.00 99 1008.1
20260507201645 25 90 0.0 0.0 0.00 0.00 0.00 99 1007.7
20260507201143 25 92 0.0 0.0 0.00 0.00 0.00 99 1007.9
20260507200639 25 90 0.0 1.6 0.00 0.00 0.00 99 1008.0
20260507200135 25 92 0.0 0.0 0.00 0.00 0.00 99 1007.9
20260507195632 25 97 0.0 0.0 0.00 0.00 0.00 99 1008.0
20260507195129 25 93 0.0 0.0 0.00 0.00 0.00 99 1008.2
20260507194626 25 87 0.0 0.0 0.00 0.00 0.00 99 1008.1
20260507194121 25 84 0.0 0.0 0.00 0.00 0.00 99 1008.1
20260507193618 25 92 0.0 0.0 0.00 0.00 0.00 99 1008.0
20260507193115 25 91 0.0 0.0 0.00 0.00 0.00 99 1008.1
20260507192612 25 98 0.0 0.0 0.00 0.00 0.00 99 1008.1
20260507192109 25 98 0.0 0.0 0.00 0.00 0.00 99 1007.9
20260507191604 25 106 0.0 0.0 0.00 0.00 0.00 99 1008.2
20260507191101 25 85 0.0 0.0 0.00 0.00 0.00 99 1007.8
20260507190558 25 92 0.0 0.0 0.00 0.00 0.00 99 1008.1
20260507190057 25 89 0.0 0.0 0.00 0.00 0.00 99 1008.2
20260507185555 25 88 0.0 0.0 0.00 0.00 0.00 99 1008.2
20260507185051 25 98 0.0 0.0 0.00 0.00 0.00 99 1008.4
20260507184550 25 98 0.0 0.0 0.00 0.00 0.00 99 1008.3
20260507184047 25 98 0.0 0.0 0.00 0.00 0.00 99 1008.4
20260507183543 25 98 0.0 0.0 0.00 0.00 0.00 99 1008.3
20260507183040 25 100 0.0 0.0 0.00 0.00 0.00 99 1008.4
20260507182536 25 101 0.0 0.0 0.00 0.00 0.00 99 1008.2
20260507182032 25 105 0.0 0.0 0.00 0.00 0.00 99 1008.8
20260507181530 25 106 0.0 1.6 0.00 0.00 0.00 99 1008.8
20260507181026 25 92 0.0 0.0 0.00 0.00 0.00 99 1008.9
20260507180522 25 92 0.0 0.0 0.00 0.00 0.00 99 1008.8
20260507180019 25 92 0.0 0.0 0.00 0.00 0.00 99 1008.8
20260507175515 25 92 0.0 0.0 0.00 0.00 0.00 99 1009.0
20260507175013 25 93 0.0 0.0 0.00 0.00 0.00 99 1008.7
20260507174510 25 100 0.0 0.0 0.00 0.00 0.00 99 1008.7
20260507174008 25 98 0.0 0.0 0.00 0.00 0.00 99 1008.7
20260507173504 25 105 0.0 0.0 0.00 0.00 0.00 99 1008.6
20260507173002 25 105 0.0 0.0 0.00 0.00 0.00 99 1008.6
20260507172457 25 99 0.0 0.0 0.00 0.00 0.00 99 1008.7
20260507171954 25 101 0.0 0.0 0.00 0.00 0.00 99 1008.7
20260507171450 25 97 0.0 1.6 0.00 0.00 0.00 99 1008.6
20260507170947 25 94 0.0 0.0 0.00 0.00 0.00 99 1008.7
20260507170444 25 99 0.0 0.0 0.00 0.00 0.00 99 1009.0
20260507165940 25 101 0.0 0.0 0.00 0.08 0.08 99 1009.1
20260507165437 25 116 0.0 0.0 0.00 0.08 0.08 99 1009.3
20260507164932 25 100 0.0 0.0 0.00 0.08 0.08 99 1009.1
20260507164430 25 105 0.0 0.0 0.00 0.08 0.08 99 1009.2
20260507163926 25 111 1.6 1.6 0.00 0.08 0.08 99 1009.1
20260507163424 25 112 1.6 1.6 0.00 0.08 0.08 99 1009.1
20260507162921 25 107 1.6 1.6 0.00 0.08 0.08 99 1009.2
20260507162416 25 111 0.0 0.0 0.00 0.08 0.08 99 1009.2
20260507161914 25 119 0.0 0.0 0.00 0.08 0.08 99 1009.4
20260507161409 25 107 0.0 0.0 0.00 0.08 0.08 99 1009.5
20260507160906 25 111 0.0 1.6 0.00 0.08 0.08 99 1009.6
20260507160402 25 111 0.0 0.0 0.00 0.08 0.08 99 1009.6
20260507155858 25 110 0.0 0.0 0.00 0.08 0.08 99 1009.5
20260507155354 25 103 0.0 0.0 0.00 0.08 0.08 99 1009.5
20260507154851 25 93 0.0 0.0 0.00 0.08 0.08 99 1009.4
20260507154348 25 101 0.0 0.0 0.00 0.08 0.08 99 1009.6
20260507153846 25 107 0.0 0.0 0.00 0.08 0.08 99 1009.4
20260507153342 25 110 1.6 1.6 0.00 0.08 0.08 99 1009.1
20260507152838 25 109 0.0 0.0 0.00 0.08 0.08 99 1009.2
20260507152334 25 100 0.0 0.0 0.00 0.08 0.08 99 1009.3
20260507151831 25 99 0.0 0.0 0.00 0.08 0.08 99 1009.0
20260507151327 25 99 0.0 0.0 0.00 0.08 0.08 99 1009.0
20260507150824 25 100 0.0 0.0 0.00 0.08 0.08 99 1009.2
20260507150321 25 84 0.0 1.6 0.00 0.08 0.08 99 1009.0
20260507145817 25 105 0.0 0.0 0.00 0.08 0.08 99 1008.9
20260507145314 26 99 0.0 0.0 0.00 0.08 0.08 99 1008.9
20260507144811 25 110 0.0 0.0 0.00 0.08 0.08 99 1008.7
20260507144308 26 95 0.0 0.0 0.00 0.08 0.08 99 1008.8
20260507143804 26 96 0.0 0.0 0.00 0.08 0.08 99 1008.6
20260507143302 26 113 3.2 3.2 0.00 0.08 0.08 98 1008.7
20260507142757 26 123 1.6 1.6 0.13 0.08 0.08 98 1008.8
20260507142254 26 117 3.2 4.8 0.13 0.08 0.08 98 1008.8
20260507141751 26 109 3.2 3.2 0.13 0.08 0.08 98 1008.6
20260507141248 26 123 3.2 3.2 0.00 0.05 0.05 98 1008.6
20260507140744 26 111 4.8 6.4 0.18 0.05 0.05 96 1008.5
20260507140242 27 105 3.2 3.2 0.30 0.05 0.05 95 1008.5
20260507135738 27 119 3.2 3.2 0.13 0.03 0.03 92 1008.5
20260507135236 28 108 3.2 4.8 0.00 0.00 0.00 87 1008.2
20260507134732 28 120 8.0 12.9 0.00 0.00 0.00 85 1008.2
20260507134228 28 134 8.0 9.7 0.00 0.00 0.00 85 1008.3
20260507133724 28 125 4.8 4.8 0.00 0.00 0.00 85 1008.2
20260507133221 28 153 6.4 6.4 0.00 0.00 0.00 86 1008.2
20260507132719 28 111 1.6 3.2 0.00 0.00 0.00 85 1007.7
20260507132215 28 107 0.0 0.0 0.00 0.00 0.00 86 1007.4
20260507131712 28 94 0.0 0.0 0.00 0.00 0.00 86 1007.6
20260507131210 28 92 1.6 1.6 0.00 0.00 0.00 85 1007.6
20260507130706 28 96 4.8 4.8 0.00 0.00 0.00 84 1007.3
20260507130204 28 359 1.6 3.2 0.00 0.00 0.00 84 1007.6
20260507125702 28 125 3.2 6.4 0.00 0.00 0.00 86 1007.6
20260507125200 28 152 3.2 4.8 0.00 0.00 0.00 85 1007.3
20260507124656 28 137 1.6 1.6 0.00 0.00 0.00 84 1007.0
20260507124153 28 90 1.6 1.6 0.00 0.00 0.00 83 1006.5
20260507123652 29 25 1.6 3.2 0.00 0.00 0.00 83 1006.8
20260507123148 29 82 0.0 0.0 0.00 0.00 0.00 83 1006.5
20260507122643 29 317 3.2 4.8 0.00 0.00 0.00 83 1006.7
20260507122139 28 44 1.6 3.2 0.00 0.00 0.00 83 1006.8
20260507121635 28 272 4.8 6.4 0.00 0.00 0.00 83 1006.7
20260507121132 28 325 3.2 4.8 0.00 0.00 0.00 83 1006.4
20260507120628 28 76 1.6 1.6 0.00 0.00 0.00 84 1006.2
20260507120124 29 81 3.2 4.8 0.00 0.00 0.00 85 1006.2
20260507115621 29 290 6.4 9.7 0.00 0.00 0.00 85 1006.2
20260507115111 28 327 1.6 3.2 0.00 0.00 0.00 86 1006.0
20260507114607 29 80 0.0 0.0 0.00 0.00 0.00 84 1005.9
20260507114105 29 76 1.6 1.6 0.00 0.00 0.00 83 1006.0
20260507113602 29 101 0.0 0.0 0.00 0.00 0.00 83 1005.7
20260507113059 29 92 0.0 0.0 0.00 0.00 0.00 84 1005.8
20260507112557 29 90 0.0 1.6 0.00 0.00 0.00 83 1005.7
20260507112053 29 93 0.0 0.0 0.00 0.00 0.00 84 1005.6
20260507111550 30 95 0.0 1.6 0.00 0.00 0.00 82 1005.6
20260507111047 30 300 3.2 3.2 0.00 0.00 0.00 82 1005.5
20260507110543 30 309 3.2 4.8 0.00 0.00 0.00 80 1005.5
20260507110040 30 29 1.6 3.2 0.00 0.00 0.00 80 1005.5
20260507105537 30 297 4.8 4.8 0.00 0.00 0.00 79 1005.6
20260507105033 30 48 1.6 3.2 0.00 0.00 0.00 80 1005.5
20260507104530 30 52 1.6 1.6 0.00 0.00 0.00 79 1005.2
20260507104026 30 94 0.0 0.0 0.00 0.00 0.00 81 1005.2
20260507103523 30 87 0.0 0.0 0.00 0.00 0.00 79 1005.4
20260507103020 30 89 0.0 0.0 0.00 0.00 0.00 78 1005.1
20260507102516 31 87 0.0 1.6 0.00 0.00 0.00 77 1005.1
20260507102012 31 22 1.6 1.6 0.00 0.00 0.00 77 1005.2
20260507101507 31 93 0.0 0.0 0.00 0.00 0.00 76 1005.0
20260507101004 31 95 0.0 1.6 0.00 0.00 0.00 75 1004.9
20260507100456 31 57 1.6 1.6 0.00 0.00 0.00 73 1005.0
20260507095954 31 91 1.6 1.6 0.00 0.00 0.00 73 1004.9
20260507095452 32 71 1.6 1.6 0.00 0.00 0.00 73 1005.0
20260507094948 31 78 1.6 1.6 0.00 0.00 0.00 72 1004.8
20260507094444 32 315 4.8 6.4 0.00 0.00 0.00 71 1004.8
20260507093941 32 24 3.2 3.2 0.00 0.00 0.00 71 1004.9
20260507093439 32 89 1.6 1.6 0.00 0.00 0.00 70 1005.0
20260507092937 32 89 1.6 3.2 0.00 0.00 0.00 68 1004.7
20260507092433 32 79 3.2 4.8 0.00 0.00 0.00 69 1004.8
20260507091930 32 320 1.6 4.8 0.00 0.00 0.00 67 1004.8
20260507091426 33 83 3.2 3.2 0.00 0.00 0.00 66 1004.6
20260507090916 33 335 3.2 3.2 0.00 0.00 0.00 64 1004.7
20260507090413 33 100 1.6 1.6 0.00 0.00 0.00 65 1004.8
20260507085909 33 75 3.2 3.2 0.00 0.00 0.00 65 1004.9
20260507085406 34 85 1.6 3.2 0.00 0.00 0.00 64 1004.8
20260507084904 34 109 3.2 3.2 0.00 0.00 0.00 63 1005.0
20260507084400 34 118 0.0 1.6 0.00 0.00 0.00 62 1005.0
20260507083858 35 19 6.4 9.7 0.00 0.00 0.00 62 1005.0
20260507083354 35 128 3.2 4.8 0.00 0.00 0.00 61 1005.1
20260507082850 35 109 1.6 1.6 0.00 0.00 0.00 59 1004.8
20260507082346 35 45 3.2 4.8 0.00 0.00 0.00 61 1005.0
20260507081843 35 191 1.6 3.2 0.00 0.00 0.00 61 1004.9
20260507081339 35 334 0.0 1.6 0.00 0.00 0.00 61 1004.9
20260507080836 35 173 3.2 4.8 0.00 0.00 0.00 61 1005.1
20260507080332 34 104 0.0 0.0 0.00 0.00 0.00 64 1004.8
20260507075828 35 281 4.8 4.8 0.00 0.00 0.00 62 1005.2
20260507075324 35 148 1.6 3.2 0.00 0.00 0.00 62 1005.4
20260507074821 33 128 1.6 1.6 0.00 0.00 0.00 63 1005.2
20260507074318 33 133 1.6 1.6 0.00 0.00 0.00 63 1005.4
20260507073815 34 121 1.6 1.6 0.00 0.00 0.00 63 1005.3
20260507073312 35 194 1.6 3.2 0.00 0.00 0.00 59 1005.4
20260507072809 35 110 1.6 3.2 0.00 0.00 0.00 59 1005.7
20260507072308 35 103 0.0 0.0 0.00 0.00 0.00 58 1005.6
20260507071804 35 103 1.6 1.6 0.00 0.00 0.00 55 1005.7
20260507071300 35 122 4.8 4.8 0.00 0.00 0.00 55 1005.8
20260507070757 35 135 4.8 4.8 0.00 0.00 0.00 55 1005.8
20260507070254 33 122 1.6 1.6 0.00 0.00 0.00 58 1006.1
20260507065751 35 216 6.4 6.4 0.00 0.00 0.00 57 1005.8
20260507065247 35 99 0.0 0.0 0.00 0.00 0.00 59 1006.3
20260507064745 35 140 1.6 1.6 0.00 0.00 0.00 54 1006.2
20260507064244 35 180 6.4 9.7 0.00 0.00 0.00 55 1006.6
20260507063740 35 207 3.2 4.8 0.00 0.00 0.00 54 1006.6
20260507063237 35 66 3.2 3.2 0.00 0.00 0.00 53 1006.5
20260507062734 35 115 3.2 4.8 0.00 0.00 0.00 54 1006.8
20260507062232 35 86 1.6 1.6 0.00 0.00 0.00 55 1006.8
20260507061730 36 55 3.2 4.8 0.00 0.00 0.00 54 1007.0
20260507061227 36 176 1.6 3.2 0.00 0.00 0.00 53 1007.3
20260507060725 35 104 1.6 1.6 0.00 0.00 0.00 56 1007.2
20260507060222 35 127 3.2 4.8 0.00 0.00 0.00 53 1007.5
20260507055718 35 85 4.8 4.8 0.00 0.00 0.00 54 1007.5
20260507055213 35 104 0.0 1.6 0.00 0.00 0.00 57 1007.6
20260507054709 35 158 1.6 3.2 0.00 0.00 0.00 56 1007.8
20260507054207 34 17 6.4 6.4 0.00 0.00 0.00 57 1007.8
20260507053704 34 57 3.2 4.8 0.00 0.00 0.00 57 1007.7
20260507053202 35 96 1.6 1.6 0.00 0.00 0.00 57 1008.0
20260507052701 35 122 1.6 3.2 0.00 0.00 0.00 57 1008.1
20260507052156 35 104 3.2 4.8 0.00 0.00 0.00 57 1008.3
20260507051654 33 112 0.0 1.6 0.00 0.00 0.00 62 1008.1
20260507051150 33 105 1.6 1.6 0.00 0.00 0.00 64 1008.5
20260507050647 33 71 1.6 3.2 0.00 0.00 0.00 63 1008.4
20260507050144 33 111 1.6 1.6 0.00 0.00 0.00 64 1008.3
20260507045641 34 72 1.6 1.6 0.00 0.00 0.00 66 1008.2
20260507045137 35 95 1.6 1.6 0.00 0.00 0.00 63 1008.5
20260507044635 33 14 1.6 3.2 0.00 0.00 0.00 67 1008.7
20260507044131 33 74 3.2 3.2 0.00 0.00 0.00 67 1008.8
20260507043627 33 56 3.2 3.2 0.00 0.00 0.00 69 1008.6
20260507043124 33 92 3.2 4.8 0.00 0.00 0.00 68 1008.8
20260507042621 32 105 3.2 3.2 0.00 0.00 0.00 73 1008.4
20260507042115 33 202 3.2 4.8 0.00 0.00 0.00 70 1008.8
20260507041612 33 91 0.0 0.0 0.00 0.00 0.00 71 1009.2
20260507041104 32 65 3.2 4.8 0.00 0.00 0.00 70 1009.2
20260507040601 32 77 3.2 3.2 0.00 0.00 0.00 70 1008.9
20260507040057 32 42 3.2 3.2 0.00 0.00 0.00 71 1009.3
20260507035553 32 88 1.6 3.2 0.00 0.00 0.00 70 1009.0
20260507035049 32 107 6.4 6.4 0.00 0.00 0.00 68 1009.3
20260507034546 33 76 0.0 1.6 0.00 0.00 0.00 67 1009.3
20260507034044 33 123 4.8 4.8 0.00 0.00 0.00 65 1009.4
20260507033542 32 101 1.6 3.2 0.00 0.00 0.00 68 1009.4
20260507033039 32 42 4.8 6.4 0.00 0.00 0.00 70 1009.5
20260507032536 32 84 0.0 0.0 0.00 0.00 0.00 69 1009.5
20260507032032 31 48 9.7 12.9 0.00 0.00 0.00 73 1009.4
20260507031528 31 55 1.6 3.2 0.00 0.00 0.00 72 1009.7
20260507031026 32 101 3.2 3.2 0.00 0.00 0.00 71 1009.9
20260507030522 31 79 1.6 1.6 0.00 0.00 0.00 72 1009.9
20260507030021 31 45 1.6 1.6 0.00 0.00 0.00 75 1009.7
20260507025517 31 104 4.8 4.8 0.00 0.00 0.00 76 1009.9
20260507025015 31 84 1.6 1.6 0.00 0.00 0.00 76 1009.8
20260507024512 30 61 4.8 6.4 0.00 0.00 0.00 80 1010.0
20260507024009 30 44 4.8 4.8 0.00 0.00 0.00 80 1009.9
20260507023504 30 69 1.6 1.6 0.00 0.00 0.00 80 1010.2
20260507023002 30 81 3.2 3.2 0.00 0.00 0.00 82 1010.1
20260507022458 30 92 1.6 3.2 0.00 0.00 0.00 82 1010.3
20260507021948 30 113 3.2 3.2 0.00 0.00 0.00 82 1010.2
20260507021444 30 102 4.8 6.4 0.00 0.00 0.00 80 1010.1
20260507020942 30 81 0.0 1.6 0.00 0.00 0.00 83 1010.2
20260507020438 29 52 4.8 4.8 0.00 0.00 0.00 84 1010.0
20260507015935 28 46 3.2 4.8 0.00 0.00 0.00 88 1010.0
20260507015433 30 13 8.0 9.7 0.00 0.00 0.00 84 1010.2
20260507014924 28 92 1.6 3.2 0.00 0.00 0.00 87 1010.0
20260507014420 28 43 6.4 6.4 0.00 0.00 0.00 89 1010.1
20260507013916 29 74 1.6 1.6 0.00 0.00 0.00 87 1010.3
20260507013413 30 45 1.6 3.2 0.00 0.00 0.00 84 1010.0
20260507012906 29 67 3.2 3.2 0.00 0.00 0.00 84 1010.3
20260507012401 29 87 0.0 0.0 0.00 0.00 0.00 84 1010.2
20260507011853 29 107 3.2 3.2 0.00 0.00 0.00 83 1009.9
20260507011349 28 41 3.2 3.2 0.00 0.00 0.00 84 1010.1
20260507010844 28 53 1.6 3.2 0.00 0.00 0.00 86 1010.0
20260507010339 28 88 1.6 1.6 0.00 0.00 0.00 88 1009.9
20260507005837 27 75 0.0 0.0 0.00 0.00 0.00 90 1010.0
20260507005333 27 87 0.0 0.0 0.00 0.00 0.00 90 1010.0
20260507004831 27 26 4.8 4.8 0.00 0.00 0.00 89 1009.8
20260507004328 27 80 0.0 0.0 0.00 0.00 0.00 90 1010.1
20260507003825 27 36 3.2 4.8 0.00 0.00 0.00 90 1010.0
20260507003321 27 96 0.0 0.0 0.00 0.00 0.00 90 1009.8
20260507002815 27 101 1.6 1.6 0.00 0.00 0.00 92 1009.9
20260507002311 27 95 0.0 1.6 0.00 0.00 0.00 92 1010.0
20260507001803 27 49 0.0 1.6 0.00 0.00 0.00 93 1009.7
20260507001300 27 76 0.0 0.0 0.00 0.00 0.00 92 1009.9
20260507000756 26 99 3.2 3.2 0.00 0.00 0.00 93 1009.7
20260507000252 26 67 0.0 1.6 0.00 0.00 0.00 96 1009.6
20260506235749 26 88 0.0 0.0 0.00 0.00 0.00 98 1009.7
20260506235244 25 92 0.0 0.0 0.00 0.00 0.00 99 1009.6
20260506234742 25 88 0.0 0.0 0.00 0.00 0.00 99 1009.4
20260506234238 25 87 0.0 0.0 0.00 0.00 0.00 99 1009.5
20260506233737 25 86 0.0 0.0 0.00 0.00 0.00 99 1009.4
20260506233233 25 88 0.0 0.0 0.00 0.00 0.00 99 1009.5
20260506232729 25 88 1.6 1.6 0.00 0.00 0.00 99 1009.1
20260506232224 24 63 1.6 3.2 0.00 0.00 0.00 99 1008.9
20260506231722 24 83 0.0 1.6 0.00 0.00 0.00 99 1008.9
20260506231220 24 79 0.0 0.0 0.00 0.00 0.00 99 1009.0
20260506230716 23 87 0.0 0.0 0.00 0.00 0.00 99 1009.0
20260506230214 23 87 0.0 0.0 0.00 0.00 0.00 99 1008.5
20260506225710 23 79 1.6 1.6 0.00 0.00 0.00 99 1008.8
20260506225207 23 91 1.6 1.6 0.00 0.00 0.00 99 1008.4
20260506224703 23 73 1.6 1.6 0.00 0.00 0.00 99 1008.6
20260506224201 23 81 0.0 1.6 0.00 0.00 0.00 99 1008.4
20260506223656 23 75 0.0 1.6 0.00 0.00 0.00 99 1008.3
20260506223152 23 84 0.0 0.0 0.00 0.00 0.00 99 1008.3
20260506222650 23 87 0.0 1.6 0.00 0.00 0.00 99 1008.0
20260506222145 23 89 1.6 1.6 0.00 0.00 0.00 99 1007.9
20260506221644 23 60 1.6 3.2 0.00 0.00 0.00 99 1007.8
20260506221141 23 65 1.6 1.6 0.00 0.00 0.00 99 1007.9
20260506220638 23 93 0.0 1.6 0.00 0.00 0.00 99 1008.1
20260506220133 23 89 1.6 1.6 0.00 0.00 0.00 99 1007.7
20260506215630 23 91 0.0 1.6 0.00 0.00 0.00 99 1008.0
20260506215125 23 98 0.0 1.6 0.00 0.00 0.00 99 1008.1
20260506214622 23 73 0.0 1.6 0.00 0.00 0.00 99 1007.7
20260506214120 23 89 3.2 3.2 0.00 0.00 0.00 99 1007.8
20260506213618 23 96 0.0 1.6 0.00 0.00 0.00 99 1007.8
20260506213115 23 100 0.0 0.0 0.00 0.00 0.00 99 1007.8
20260506212612 23 100 1.6 1.6 0.00 0.00 0.00 99 1007.7
20260506212107 23 74 1.6 1.6 0.00 0.00 0.00 99 1007.7
20260506211603 23 96 0.0 1.6 0.00 0.00 0.00 99 1007.5
20260506211100 23 87 0.0 0.0 0.00 0.00 0.00 99 1007.7
20260506210556 23 59 3.2 3.2 0.00 0.00 0.00 99 1007.5
20260506210053 23 90 0.0 0.0 0.00 0.00 0.00 99 1007.8
20260506205550 23 88 0.0 0.0 0.00 0.00 0.00 99 1007.8
20260506205045 23 89 0.0 1.6 0.00 0.00 0.00 99 1007.8
20260506204543 23 73 0.0 1.6 0.00 0.00 0.00 99 1007.7
20260506204040 23 73 0.0 1.6 0.00 0.00 0.00 99 1007.7
20260506203538 23 84 0.0 0.0 0.00 0.00 0.00 99 1007.7
20260506203034 23 63 1.6 3.2 0.00 0.00 0.00 99 1007.7